カタログに戻る

STARLINK-31754

運用中通信VLEO
NORAD 59488·PAYLOAD·🇺🇸 United States

打ち上げ Apr 13, 2024 から Cape Canaveral Space Force Station

Loading…

次のパス (今後24時間)

TLE

最新Source: CelesTrak SupGP

元期: Sep 15, 2026, 03:08 UTC

1 59488C 24071E   26258.13104167  .00035304  00000+0  12786-2 0  2582
2 59488  43.0025 357.4442 0001565 261.5891 354.8562 15.27562567    18

AllMySatでSTARLINK-31754をリアルタイム追跡

Download on the App Store